Terminal Aerodrome Forecast
Issued by NWS

Home | Current Version | Previous Version | Text Only | Print | Product List | Glossary On
Versions: 1 2 3 4 5 6 7 8 9 10 11 12 13 14 15 16 17 18 19 20 21 22 23 24 25
000
FTUS45 KLKN 272055 AAA
TAFTPH
TAF AMD
KTPH 272055Z 2721/2818 24008KT P6SM SCT090
     FM280500 36009KT P6SM FEW080=

USA.gov is the U.S. government's official web portal to all federal, state and local government web resources and services.